Regional Weather Roundup
Issued by NWS

Home | Current Version | Previous Version | Graphics & Text | Print | Product List | Glossary On
Versions: 1 2 3 4 5 6 7 8 9 10 11 12 13 14 15 16 17 18 19 20 21 22 23 24 25 26 27 28 29 30 31 32 33 34 35 36 37 38 39 40 41 42 43 44 45 46 47 48 49 50
000
ASUS44 KMEG 280310
RWRTN
TENNESSEE HOURLY STATE WEATHER ROUNDUP
NATIONAL WEATHER SERVICE MEMPHIS TN
1000 PM CDT TUE JUN 27 2017

TNZ002-004-019-021-049-052-054-088>092-280400-
WEST TENNESSEE

CITY           SKY/WX    TMP DP  RH WIND       PRES   REMARKS
MEMPHIS INTL   PTCLDY    78  64  61 E7        30.05R
NWS MEMPHIS      N/A     73 N/A N/A MISG        N/A
JACKSON        CLEAR     68  66  93 CALM      30.06R
SOMERVILLE     CLEAR     70  66  88 CALM      30.05R
COVINGTON      CLEAR     72  66  83 CALM      30.05R
UNION CITY     PTCLDY    70  64  83 CALM      30.06R
BOLIVAR        CLEAR     66  64  94 CALM      30.06R
HUNTINGDON     PTCLDY    66  63  88 CALM      30.07R
LEXINGTON      CLEAR     64  64 100 CALM      30.08R
SELMER         CLEAR     66  64  94 CALM      30.07R
SAVANNAH       CLEAR     66  64  94 CALM      30.07R
$$

TNZ008-025-027-028-033-062-065-066-280400-
NORTH MIDDLE TENNESSEE

CITY           SKY/WX    TMP DP  RH WIND       PRES   REMARKS
NASHVILLE      CLEAR     72  56  57 NE5       30.10R
PORTLAND       CLEAR     68  55  64 SE3       30.10R
CLARKSVILLE    CLEAR     65  55  70 CALM      30.09R
SMYRNA         CLEAR     66  59  78 CALM      30.11R
COOKEVILLE       N/A     61  57  88 CALM      30.12R
GALLATIN       CLEAR     68  57  68 CALM      30.12R
CROSSVILLE     CLEAR     58  53  84 CALM      30.16R
$$

TNZ061-075-076-078-094-096-097-280400-
SOUTH MIDDLE TENNESSEE

CITY           SKY/WX    TMP DP  RH WIND       PRES   REMARKS
FAYETTEVILLE   CLEAR     64  59  82 CALM      30.10R
TULLAHOMA      CLEAR     63  57  82 CALM      30.13R
WINCHESTER     CLEAR     63  57  82 CALM      30.12R
MCMINNVILLE    CLEAR     61  61 100 CALM      30.12R
COLUMBIA       PTCLDY    66  66 100 CALM      30.07R
SHELBYVILLE    CLEAR     64  61  88 E5        30.10R
$$

TNZ017-018-042-046-047-280400-
NORTHEAST TENNESSEE

CITY           SKY/WX    TMP DP  RH WIND       PRES   REMARKS
TRI CITIES     PTCLDY    59  53  80 CALM      30.15R
ELIZABETHTON   PTCLDY    57  54  88 CALM      30.16R
$$

TNZ012-013-036-069-073-074-280400-
CENTRAL EAST TENNESSEE

CITY           SKY/WX    TMP DP  RH WIND       PRES   REMARKS
KNOXVILLE      CLEAR     65  55  70 CALM      30.11R
OAK RIDGE      CLEAR     63  55  75 CALM      30.13R
DOWNTOWN KNOXV   N/A     61  59  94 CALM      30.11R
GATLINBURG     CLEAR     61  52  72 CALM      30.13R
MORRISTOWN     PTCLDY    64  54  68 CALM      30.13R
JACKSBORO        N/A     59  55  88 CALM      30.17R
$$

TNZ083-085-099-280400-
SOUTHEAST TENNESSEE

CITY           SKY/WX    TMP DP  RH WIND       PRES   REMARKS
CHATTANOOGA    PTCLDY    69  57  65 CALM      30.11R
DAYTON         MOCLDY    64  61  88 CALM      30.10S
$$

SKY/WX REPORTED AS FAIR MEANS FEW OR NO CLOUDS BELOW
12 THOUSAND FEET.





USA.gov is the U.S. government's official web portal to all federal, state and local government web resources and services.